Regional Weather Roundup
Issued by NWS Northern Indiana

Home | Current Version | Previous Version | Text Only | Print | Product List | Glossary On
Versions: 1 2 3 4 5 6 7 8 9 10 11 12 13 14 15 16 17 18 19 20 21 22 23 24 25 26 27 28 29 30 31 32 33 34 35 36 37 38 39 40 41 42 43 44 45 46 47 48 49 50
953
ASUS43 KIWX 261710
RWRIWX

KIWX WEATHER ROUNDUP
NATIONAL WEATHER SERVICE NORTHERN INDIANA
100 PM EDT TUE SEP 26 2017

NOTE: "FAIR" INDICATES FEW OR NO CLOUDS BELOW 12,000 FEET WITH NO
SIGNIFICANT WEATHER AND/OR OBSTRUCTIONS TO VISIBILITY.

* THESE STATIONS ARE NOT UNDER NWS QUALITY CONTROL. THEY ALSO MAY NOT
  REPORT WEATHER SUCH AS PRECIPITATION OR FOG.

INZ001>027-261800-
NORTHERN INDIANA

CITY           SKY/WX    TMP DP  RH WIND       PRES   REMARKS
GARY*          MOSUNNY   90  59  35 SW13      29.97F
VALPARAISO     SUNNY     90  64  42 SW10      29.99F
MICHIGAN CITY* SUNNY     86  63  45 SW6       29.99S
LAPORTE*       SUNNY     87  64  46 SW9       29.99F
KNOX*          SUNNY     88  63  42 SW10      29.99S
SOUTH BEND     SUNNY     85  64  49 W8        29.99F
ELKHART*       SUNNY     84  64  51 CALM      30.00S
GOSHEN         SUNNY     86  63  45 S7        30.00F
MONTICELLO*    SUNNY     87  62  41 SW9       30.00S
LOGANSPORT*    SUNNY     86  61  42 SW7       30.01F
WARSAW*        SUNNY     84  64  51 S5        30.01S
AUBURN*        SUNNY     86  63  45 SW6       30.02F
FORT WAYNE     MOSUNNY   87  63  44 SW8       30.02F
HUNTINGTON*    SUNNY     86  63  45 S5        30.01S
PERU/GRISSOM   MOSUNNY   86  61  42 VRB6      29.97F

$$
INZ028>050-261800-
CENTRAL INDIANA

CITY           SKY/WX    TMP DP  RH WIND       PRES   REMARKS
LAFAYETTE      MOSUNNY   87  65  47 SW7       30.00S
KOKOMO*        SUNNY     88  65  46 SW5       30.02F
MUNCIE*        SUNNY     87  63  44 VRB3      30.03F
INDIANAPOLIS   MOSUNNY   88  66  48 S8        30.02F

$$
MIZ043>046-050>051-056>058-064>065-071>073-077>080-261800-
SOUTHWEST LOWER MICHIGAN

CITY           SKY/WX    TMP DP  RH WIND       PRES   REMARKS
BATTLE CREEK   SUNNY     88  62  41 S5        29.99F
BENTON HARBOR  SUNNY     87  60  40 SW10      29.98S
COLDWATER*     SUNNY     87  60  39 S7        30.00F
HILLSDALE*     CLOUDY    86  61  42 W10       30.01F
HOLLAND        SUNNY     88  62  41 SW9       29.97F
GRAND RAPIDS   MOSUNNY   91  57  31 S12       29.97S
KALAMAZOO      SUNNY     87  60  40 S9        29.99F
STURGIS*       SUNNY     86  63  45 W8        29.99F
THREE RIVERS*  FAIR      88  62  40 W3        30.00S

$$
OHZ001>008-015>018-024>025-261800-
NORTHWEST OHIO

CITY           SKY/WX    TMP DP  RH WIND       PRES   REMARKS
WAUSEON*       FAIR      88  64  45 VRB7      30.01S
DEFIANCE       SUNNY     86  63  45 VRB7      30.00F
FINDLAY        SUNNY     88  62  41 W5        30.01F
TOLEDO EXPRESS SUNNY     88  67  49 W7        30.00F
TOLEDO METCALF SUNNY     88  62  41 W8        30.01F
LIMA           SUNNY     85  62  46 W7        30.03F

$$
AND FOR LAKE MICHIGAN COASTAL AND OPEN LAKE BUOY OBSERVATIONS

STATION/POSITION TEMP    WIND        PRES    VSBY  WAVE
                 AIR SEA DIR/SP/G                  HT/PER
                 (F)     (DEG/KT/KT) (MB)    (MI)  (FT/S)
CALUMET HARBOR    86     190/  8/ 16 1013.9F
MICHIGAN CITY     82     210/ 10/ 12   N/A
BURNS HARBOR      84     230/ 10/ 17 1015.2F
SAINT JOSEPH      79     200/  9/ 11 1015.6
SOUTH LAKE BUOY   72 71  160/  8/ 10 1014.1S         1
4 MI NW BRIDGMAN  75 72  250/  4/  4 1014.8          1
MICHIGAN CITY     78 73  210/  2/  4   N/A           0

$$
&&




USA.gov is the U.S. government's official web portal to all federal, state and local government web resources and services.